Location: Puketoi
(40.5833°S, 176.0167°E)
Time: 15:26:22
(UTC+00:00)

Cosmos 1867 - Pass Details

Date: 08 February 2023
Orbit: 778 x 797 km, 65.0° (Epoch: 23 March)

Event Time Altitude Azimuth Distance (km) Brightness Sun altitude
Rises 16:05:14 0° 215° (SW) 3,293 6.8 -15.4°
Reaches altitude 10° 16:07:41 10° 218° (SW) 2,359 6.0 -15.0°
Maximum altitude 16:13:02 64° 298° (WNW) 872 3.5 -14.2°
Drops below altitude 10° 16:18:21 10° 18° (NNE) 2,338 5.9 -13.4°
Sets 16:20:46 0° 21° (NNE) 3,261 6.6 -13.0°
